�������l�o���
Date,Time,MP-1(��Sv/h),MP-2(��Sv/h),MP-3(��Sv/h),MP-4(��Sv/h),MP-5(��Sv/h),MP-6(��Sv/h),MP-7(��Sv/h),MP-8(��Sv/h),����,����(m/s),���J
2020/04/14,00:00,0.657,0.921,0.621,1.124,0.774,0.386,0.663,0.639,�k�k��,11.3,�L
2020/04/14,00:10,0.658,0.925,0.624,1.126,0.773,0.385,0.664,0.638,�k�k��,13.1,�L
2020/04/14,00:20,0.658,0.925,0.623,1.129,0.773,0.385,0.665,0.639,�k�k��,11.9,�L
2020/04/14,00:30,0.657,0.925,0.626,1.129,0.775,0.385,0.666,0.639,�k�k��,14.4,�L
2020/04/14,00:40,0.657,0.928,0.626,1.130,0.777,0.386,0.667,0.641,�k�k��,13.1,�L
2020/04/14,00:50,0.661,0.927,0.626,1.134,0.779,0.385,0.666,0.640,�k�k��,13.6,�L
2020/04/14,01:00,0.658,0.931,0.626,1.134,0.778,0.386,0.667,0.639,�k�k��,12.8,�L
2020/04/14,01:10,0.656,0.930,0.627,1.135,0.778,0.386,0.666,0.640,�k�k��,12.2,�L
2020/04/14,01:20,0.658,0.929,0.627,1.136,0.778,0.387,0.667,0.640,�k�k��,13.0,�L
2020/04/14,01:30,0.656,0.928,0.626,1.133,0.780,0.386,0.668,0.640,�k�k��,13.5,�L
2020/04/14,01:40,0.657,0.930,0.629,1.134,0.780,0.387,0.668,0.640,�k��,13.3,�L
2020/04/14,01:50,0.656,0.928,0.627,1.138,0.780,0.385,0.668,0.641,�k�k��,13.0,�L
2020/04/14,02:00,0.656,0.930,0.628,1.139,0.781,0.385,0.668,0.639,�k�k��,12.0,�L
2020/04/14,02:10,0.658,0.929,0.628,1.137,0.781,0.384,0.669,0.641,�k�k��,11.9,�L
2020/04/14,02:20,0.660,0.931,0.630,1.140,0.783,0.386,0.668,0.639,�k�k��,11.6,�L
2020/04/14,02:30,0.659,0.932,0.629,1.142,0.785,0.386,0.669,0.640,�k�k��,12.2,�L
2020/04/14,02:40,0.660,0.933,0.630,1.140,0.785,0.385,0.669,0.640,�k�k��,13.8,�L
2020/04/14,02:50,0.659,0.934,0.629,1.143,0.783,0.386,0.670,0.640,�k�k��,14.1,�L
2020/04/14,03:00,0.659,0.935,0.631,1.142,0.786,0.386,0.670,0.640,�k�k��,13.8,�L
2020/04/14,03:10,0.662,0.936,0.632,1.143,0.787,0.385,0.671,0.640,�k�k��,12.7,�L
2020/04/14,03:20,0.661,0.934,0.633,1.144,0.787,0.386,0.670,0.640,�k�k��,11.8,�L
2020/04/14,03:30,0.661,0.936,0.632,1.143,0.788,0.386,0.670,0.642,�k�k��,14.1,�L
2020/04/14,03:40,0.662,0.937,0.632,1.145,0.790,0.388,0.671,0.640,�k�k��,12.4,�L
2020/04/14,03:50,0.661,0.937,0.632,1.145,0.789,0.386,0.670,0.640,�k�k��,13.0,�L
2020/04/14,04:00,0.662,0.939,0.633,1.146,0.792,0.386,0.673,0.642,�k�k��,13.6,�L
2020/04/14,04:10,0.663,0.942,0.633,1.148,0.790,0.387,0.673,0.641,�k,12.1,�L
2020/04/14,04:20,0.662,0.939,0.633,1.147,0.790,0.388,0.673,0.642,�k�k��,12.0,�L
2020/04/14,04:30,0.666,0.939,0.634,1.148,0.791,0.386,0.674,0.642,�k�k��,11.6,�L
2020/04/14,04:40,0.663,0.940,0.633,1.149,0.792,0.385,0.673,0.643,�k�k��,10.8,�L
2020/04/14,04:50,0.665,0.940,0.633,1.150,0.793,0.387,0.674,0.642,�k�k��,7.8,�L
2020/04/14,05:00,0.664,0.940,0.635,1.152,0.792,0.387,0.673,0.643,�k�k��,8.6,�L
2020/04/14,05:10,0.664,0.941,0.635,1.151,0.796,0.387,0.674,0.644,�k�k��,11.8,�L
2020/04/14,05:20,0.664,0.941,0.633,1.153,0.796,0.385,0.674,0.643,�k�k��,12.1,�L
2020/04/14,05:30,0.664,0.939,0.635,1.152,0.797,0.385,0.675,0.642,�k�k��,10.4,�L
2020/04/14,05:40,0.664,0.942,0.634,1.149,0.797,0.387,0.673,0.644,�k�k��,10.6,�L
2020/04/14,05:50,0.666,0.943,0.635,1.152,0.798,0.387,0.674,0.643,�k�k��,9.9,�L
2020/04/14,06:00,0.665,0.943,0.636,1.150,0.797,0.387,0.674,0.643,�k�k��,7.9,��
2020/04/14,06:10,0.663,0.944,0.636,1.154,0.798,0.386,0.673,0.643,�k�k��,7.4,��
2020/04/14,06:20,0.667,0.941,0.636,1.153,0.800,0.387,0.673,0.644,�k�k��,6.9,��
2020/04/14,06:30,0.665,0.942,0.636,1.157,0.798,0.385,0.674,0.642,�k�k��,7.9,��
2020/04/14,06:40,0.665,0.942,0.635,1.153,0.799,0.387,0.675,0.643,�k�k��,8.5,��
2020/04/14,06:50,0.665,0.945,0.635,1.157,0.799,0.384,0.674,0.643,�k�k��,8.5,��
2020/04/14,07:00,0.667,0.945,0.638,1.154,0.797,0.386,0.675,0.644,�k�k��,6.5,��
2020/04/14,07:10,0.665,0.946,0.638,1.157,0.800,0.387,0.674,0.644,�k�k��,6.3,��
2020/04/14,07:20,0.667,0.947,0.638,1.155,0.801,0.387,0.677,0.643,�k�k��,6.5,��
2020/04/14,07:30,0.667,0.946,0.639,1.157,0.801,0.386,0.677,0.645,�k�k��,5.9,��
2020/04/14,07:40,0.667,0.947,0.638,1.156,0.802,0.387,0.675,0.645,�k�k��,5.3,��
2020/04/14,07:50,0.667,0.945,0.639,1.156,0.803,0.386,0.675,0.644,�k�k��,5.9,��
2020/04/14,08:00,0.669,0.946,0.638,1.157,0.803,0.388,0.675,0.645,�k�k��,6.1,��
2020/04/14,08:10,0.670,0.946,0.637,1.159,0.801,0.387,0.675,0.644,�k�k��,6.5,��
2020/04/14,08:20,0.670,0.948,0.638,1.159,0.803,0.387,0.677,0.646,�k�k��,8.2,��
2020/04/14,08:30,0.669,0.947,0.639,1.156,0.804,0.387,0.676,0.644,�k��,7.3,��
2020/04/14,08:40,0.671,0.948,0.639,1.159,0.805,0.386,0.674,0.645,�k�k��,7.7,��
2020/04/14,08:50,0.671,0.951,0.639,1.158,0.804,0.389,0.675,0.645,�k�k��,10.7,��
2020/04/14,09:00,0.672,0.947,0.642,1.161,0.803,0.388,0.676,0.647,�k��,9.8,��
2020/04/14,09:10,0.671,0.947,0.641,1.161,0.803,0.387,0.677,0.644,�k��,11.7,��
2020/04/14,09:20,0.670,0.946,0.642,1.159,0.805,0.388,0.675,0.643,�k�k��,13.5,��
2020/04/14,09:30,0.672,0.947,0.642,1.160,0.808,0.386,0.676,0.646,�k��,13.0,��
2020/04/14,09:40,0.672,0.949,0.643,1.162,0.809,0.386,0.677,0.645,�k�k��,11.8,��
2020/04/14,09:50,0.674,0.950,0.644,1.160,0.808,0.386,0.677,0.644,�k��,11.0,��
2020/04/14,10:00,0.673,0.947,0.643,1.162,0.810,0.387,0.678,0.646,�k�k��,9.2,��
2020/04/14,10:10,0.674,0.948,0.643,1.162,0.809,0.390,0.677,0.644,�k�k��,9.1,��
2020/04/14,10:20,0.673,0.953,0.643,1.164,0.812,0.386,0.679,0.645,�k��,11.7,��
2020/04/14,10:30,0.674,0.951,0.645,1.165,0.812,0.388,0.678,0.645,�k��,10.3,��
2020/04/14,10:40,0.675,0.954,0.645,1.164,0.811,0.388,0.677,0.645,�k�k��,11.6,��
2020/04/14,10:50,0.675,0.953,0.645,1.164,0.811,0.387,0.678,0.644,�k��,10.0,��
2020/04/14,11:00,0.675,0.954,0.648,1.166,0.811,0.387,0.679,0.645,�k��,10.8,��
2020/04/14,11:10,0.674,0.954,0.648,1.165,0.814,0.387,0.679,0.646,�k��,9.5,��
2020/04/14,11:20,0.675,0.955,0.649,1.167,0.813,0.389,0.677,0.645,�k��,8.5,��
2020/04/14,11:30,0.672,0.955,0.649,1.166,0.815,0.387,0.681,0.644,�k��,13.1,��
2020/04/14,11:40,0.676,0.952,0.647,1.166,0.814,0.388,0.679,0.647,�k��,10.3,��
2020/04/14,11:50,0.675,0.956,0.646,1.167,0.813,0.387,0.680,0.645,�k��,9.7,��
2020/04/14,12:00,0.677,0.960,0.648,1.168,0.815,0.388,0.678,0.646,���k��,10.2,��
2020/04/14,12:10,0.678,0.961,0.647,1.168,0.815,0.389,0.680,0.646,���k��,13.0,��
2020/04/14,12:20,0.676,0.962,0.648,1.169,0.816,0.391,0.681,0.647,�k��,13.8,��
2020/04/14,12:30,0.677,0.962,0.649,1.170,0.818,0.389,0.679,0.647,���k��,10.5,��
2020/04/14,12:40,0.677,0.961,0.647,1.171,0.815,0.390,0.680,0.647,�k��,7.7,��
2020/04/14,12:50,0.680,0.960,0.646,1.170,0.817,0.390,0.682,0.644,�k��,8.3,��
2020/04/14,13:00,0.678,0.964,0.649,1.170,0.818,0.391,0.680,0.644,�k��,13.0,��
2020/04/14,13:10,0.680,0.963,0.641,1.174,0.819,0.390,0.682,0.646,���k��,9.6,��
2020/04/14,13:20,0.679,0.962,0.645,1.173,0.819,0.390,0.680,0.646,���k��,10.0,��
2020/04/14,13:30,0.680,0.961,0.649,1.174,0.822,0.390,0.681,0.646,���k��,9.5,��
2020/04/14,13:40,0.679,0.962,0.647,1.172,0.818,0.390,0.681,0.649,�k��,10.5,��
2020/04/14,13:50,0.679,0.962,0.648,1.176,0.819,0.390,0.682,0.647,�k��,13.3,��
2020/04/14,14:00,0.676,0.962,0.641,1.173,0.820,0.389,0.682,0.648,�k��,13.3,��
2020/04/14,14:10,0.678,0.965,0.628,1.173,0.820,0.389,0.682,0.647,�k��,12.1,��
2020/04/14,14:20,0.677,0.965,0.643,1.173,0.822,0.390,0.681,0.649,�k��,11.1,��
2020/04/14,14:30,0.679,0.966,0.647,1.174,0.804,0.390,0.681,0.647,���k��,10.3,��
2020/04/14,14:40,0.680,0.965,0.647,1.176,0.820,0.389,0.681,0.649,�k��,11.1,��
2020/04/14,14:50,0.680,0.965,0.644,1.175,0.823,0.392,0.682,0.647,�k��,10.5,��
2020/04/14,15:00,0.678,0.965,0.643,1.174,0.822,0.391,0.682,0.648,���k��,8.0,��
2020/04/14,15:10,0.679,0.964,0.643,1.174,0.823,0.393,0.683,0.648,���k��,13.8,��
2020/04/14,15:20,0.681,0.966,0.644,1.178,0.821,0.391,0.681,0.646,���k��,11.6,��
2020/04/14,15:30,0.682,0.969,0.644,1.177,0.824,0.392,0.683,0.647,���k��,8.4,��
2020/04/14,15:40,0.682,0.969,0.642,1.176,0.822,0.391,0.683,0.647,�k��,13.3,��
2020/04/14,15:50,0.681,0.971,0.644,1.173,0.824,0.392,0.683,0.648,���k��,9.5,��
2020/04/14,16:00,0.679,0.972,0.643,1.174,0.825,0.392,0.683,0.648,�k��,11.7,��
2020/04/14,16:10,0.681,0.972,0.643,1.176,0.823,0.394,0.681,0.648,�k��,11.1,��
2020/04/14,16:20,0.680,0.974,0.643,1.174,0.825,0.393,0.683,0.647,�k��,8.9,��
2020/04/14,16:30,0.679,0.973,0.644,1.176,0.825,0.393,0.682,0.649,�k��,13.0,��
2020/04/14,16:40,0.679,0.975,0.645,1.176,0.825,0.393,0.683,0.649,�k��,10.2,��
2020/04/14,16:50,0.678,0.970,0.644,1.175,0.827,0.394,0.683,0.650,�k��,10.5,��
2020/04/14,17:00,0.681,0.973,0.646,1.175,0.825,0.392,0.682,0.650,�k��,12.2,��
2020/04/14,17:10,0.681,0.974,0.646,1.175,0.825,0.392,0.682,0.651,�k�k��,8.4,��
2020/04/14,17:20,0.680,0.976,0.646,1.176,0.824,0.392,0.682,0.653,�k��,10.0,��
2020/04/14,17:30,0.682,0.976,0.644,1.175,0.825,0.392,0.681,0.652,�k��,9.5,��
2020/04/14,17:40,0.683,0.977,0.646,1.178,0.824,0.391,0.682,0.651,�k��,10.2,��
2020/04/14,17:50,0.682,0.974,0.646,1.177,0.824,0.392,0.683,0.651,�k��,7.5,��
2020/04/14,18:00,0.682,0.974,0.647,1.180,0.826,0.392,0.683,0.651,�k��,9.8,��
2020/04/14,18:10,0.683,0.975,0.646,1.182,0.827,0.392,0.683,0.652,�k��,10.2,��
2020/04/14,18:20,0.682,0.975,0.648,1.179,0.829,0.392,0.682,0.652,�k��,8.8,��
2020/04/14,18:30,0.683,0.975,0.646,1.177,0.828,0.392,0.681,0.651,�k��,8.5,��
2020/04/14,18:40,0.682,0.975,0.648,1.181,0.826,0.392,0.682,0.651,�k��,8.4,��
2020/04/14,18:50,0.682,0.977,0.646,1.177,0.829,0.392,0.683,0.652,�k��,7.8,��
2020/04/14,19:00,0.683,0.976,0.645,1.180,0.830,0.393,0.683,0.651,�k��,8.5,��
2020/04/14,19:10,0.682,0.976,0.646,1.182,0.828,0.391,0.682,0.652,�k��,7.2,��
2020/04/14,19:20,0.682,0.976,0.645,1.179,0.827,0.392,0.682,0.651,�k��,7.6,��
2020/04/14,19:30,0.683,0.978,0.647,1.178,0.828,0.392,0.684,0.651,�k��,7.7,��
2020/04/14,19:40,0.682,0.976,0.646,1.180,0.828,0.392,0.683,0.652,�k��,9.2,��
2020/04/14,19:50,0.681,0.976,0.646,1.180,0.827,0.392,0.684,0.652,�k��,8.3,��
2020/04/14,20:00,0.682,0.977,0.646,1.181,0.827,0.392,0.684,0.651,�k��,8.9,��
2020/04/14,20:10,0.681,0.977,0.647,1.182,0.830,0.391,0.685,0.652,���k��,9.2,��
2020/04/14,20:20,0.682,0.977,0.645,1.182,0.827,0.391,0.684,0.651,�k��,9.4,��
2020/04/14,20:30,0.681,0.979,0.647,1.182,0.829,0.391,0.686,0.651,���k��,8.8,��
2020/04/14,20:40,0.684,0.976,0.648,1.181,0.830,0.393,0.684,0.651,�k��,7.2,��
2020/04/14,20:50,0.682,0.979,0.648,1.183,0.828,0.391,0.685,0.651,�k��,8.1,��
2020/04/14,21:00,0.683,0.977,0.647,1.180,0.830,0.392,0.685,0.652,�k��,6.9,��
2020/04/14,21:10,0.681,0.977,0.646,1.184,0.828,0.392,0.684,0.651,�k��,8.0,��
2020/04/14,21:20,0.683,0.977,0.646,1.182,0.830,0.392,0.685,0.650,�k��,7.6,��
2020/04/14,21:30,0.681,0.978,0.646,1.179,0.829,0.392,0.686,0.651,���k��,6.8,��
2020/04/14,21:40,0.683,0.980,0.646,1.179,0.829,0.392,0.685,0.650,���k��,5.4,��
2020/04/14,21:50,0.683,0.975,0.648,1.181,0.829,0.391,0.685,0.651,���k��,5.4,��
2020/04/14,22:00,0.682,0.978,0.647,1.181,0.830,0.392,0.684,0.652,��,5.1,��
2020/04/14,22:10,0.681,0.977,0.648,1.180,0.829,0.392,0.684,0.653,���k��,5.9,��
2020/04/14,22:20,0.681,0.978,0.648,1.184,0.831,0.391,0.684,0.651,���k��,5.6,��
2020/04/14,22:30,0.682,0.977,0.648,1.181,0.828,0.392,0.683,0.652,�k��,5.6,��
2020/04/14,22:40,0.681,0.977,0.645,1.180,0.831,0.392,0.685,0.651,�k��,5.4,��
2020/04/14,22:50,0.679,0.978,0.646,1.182,0.830,0.391,0.683,0.650,���k��,3.7,��
2020/04/14,23:00,0.683,0.976,0.647,1.180,0.830,0.392,0.684,0.652,���쐼,0.9,��
2020/04/14,23:10,0.680,0.974,0.648,1.183,0.830,0.393,0.685,0.650,��,0.6,��
2020/04/14,23:20,0.680,0.975,0.647,1.181,0.831,0.392,0.684,0.651,�쐼,1.2,��
2020/04/14,23:30,0.682,0.976,0.647,1.182,0.830,0.391,0.685,0.652,���k��,1.7,��
2020/04/14,23:40,0.681,0.977,0.647,1.180,0.830,0.392,0.686,0.651,���k��,3.0,��
2020/04/14,23:50,0.681,0.976,0.648,1.181,0.832,0.392,0.684,0.650,���쐼,2.2,��
